This demonstration page uses our WeatherBlox Daily Observations layout. Learn more.

Left ArrowRight Arrow

Hourly Observations for June 2, 2022

Temp ( °F °C ) Dew Point ( °F °C ) Humidity (%) Winds ( mph kmh ) Pressure ( in mb ) Visibility ( mi km ) Precip ( " mm )
12:53 am 00:53 Clear 76 24.4 67 19.4 74 74 E 6 9 30.00 1016 10 16 0.00 0.00
1:53 am 01:53 Mostly Clear 76 24.4 67 19.4 74 74 E 6 9 29.98 1015 10 16 0.00 0.00
2:53 am 02:53 Mostly Cloudy 75 23.9 63 17.2 66 66 E 7 11 29.97 1015 10 16 0.00 0.00
3:53 am 03:53 Cloudy 76 24.4 66 18.9 72 72 E 6 9 29.98 1015 10 16 0.00 0.00
4:53 am 04:53 Mostly Clear 75 23.9 67 19.4 76 76 E 7 11 29.98 1015 10 16 0.00 0.00
5:53 am 05:53 Mostly Sunny 74 23.3 67 19.4 79 79 ESE 7 11 30.00 1016 10 16 0.00 0.00
6:53 am 06:53 Partly Cloudy 77 25 67 19.4 71 71 ESE 5 7 30.01 1016 10 16 0.00 0.00
7:53 am 07:53 Cloudy 78 25.6 69 20.6 74 74 Calm 30.02 1017 10 16 0.00 0.00
8:53 am 08:53 Sunny 80 26.7 68 20 67 67 SW 6 9 30.02 1017 10 16 0.00 0.00
9:53 am 09:53 Partly Cloudy 81 27.2 68 20 65 65 WSW 8 13 30.01 1016 10 16 0.00 0.00
10:53 am 10:53 Partly Cloudy 81 27.2 69 20.6 67 67 WNW 8 13 30.02 1017 10 16 0.00 0.00
11:53 am 11:53 Mostly Cloudy 82 27.8 69 20.6 65 65 W 7 11 30.01 1016 10 16 0.00 0.00
12:53 pm 12:53 Mostly Cloudy 82 27.8 69 20.6 65 65 W 9 15 29.99 1016 10 16 0.00 0.00
1:53 pm 13:53 Mostly Cloudy 82 27.8 70 21.1 67 67 SW 9 15 29.98 1015 10 16 0.00 0.00
2:53 pm 14:53 Cloudy 84 28.9 69 20.6 61 61 SSW 12 19 29.97 1015 10 16 0.00 0.00
3:53 pm 15:53 Mostly Cloudy 82 27.8 69 20.6 65 65 SW 12 19 29.97 1015 10 16 0.00 0.00
4:53 pm 16:53 Cloudy 81 27.2 68 20 65 65 SSW 13 20 29.97 1015 10 16 0.00 0.00
5:53 pm 17:53 Cloudy 81 27.2 68 20 65 65 SSW 13 20 29.98 1015 10 16 0.00 0.00
6:53 pm 18:53 Mostly Cloudy 80 26.7 68 20 67 67 SW 8 13 30.00 1016 10 16 0.00 0.00
7:53 pm 19:53 Cloudy 79 26.1 68 20 69 69 SSW 8 13 30.01 1016 10 16 0.00 0.00
8:53 pm 20:53 Cloudy 79 26.1 69 20.6 72 72 WSW 5 7 30.03 1017 10 16 0.00 0.00
9:53 pm 21:53 Cloudy 79 26.1 70 21.1 74 74 WNW 5 7 30.03 1017 10 16 0.00 0.00
10:45 pm 22:45 Cloudy 79 26.1 71 21.7 77 77 WSW 6 9 30.02 1016 10 16 0.00 0.00
10:53 pm 22:53 Cloudy 79 26.1 71 21.7 77 77 SW 5 7 30.02 1017 10 16 0.00 0.00
11:21 pm 23:21 Cloudy 78 25.6 70 21.1 76 76 W 5 7 30.01 1016 10 16 0.00 0.00
11:33 pm 23:33 Cloudy 79 26.1 71 21.7 77 77 W 8 13 30.01 1016 10 16 0.00 0.00
11:53 pm 23:53 Cloudy 79 26.1 70 21.1 74 74 WNW 10 17 30.00 1016 10 16 0.00 0.00

Powered by AerisWeather